FW9477 Weather Reports


time (UTC)temp
C
wind
direction
speed
KPH
gust
KPH
rain 1hr
cm
rain 24hr
cm
rain mn
cm
humidity
%
barometer
mb
20260503050244 15 211 4.8 4.8 0.00 0.00 0.00 62 1016.4
20260503044741 16 120 1.6 3.2 0.00 0.00 0.00 60 1016.2
20260503043239 16 163 3.2 3.2 0.00 0.00 0.00 57 1016.0
20260503041739 17 337 1.6 3.2 0.00 0.00 0.00 56 1015.6
20260503040238 17 46 0.0 4.8 0.00 0.00 0.00 54 1015.6
20260503034735 18 101 1.6 1.6 0.00 0.00 0.00 51 1015.3
20260503033232 18 48 1.6 1.6 0.00 0.00 0.00 48 1015.1
20260503031731 20 216 3.2 3.2 0.00 0.00 0.00 47 1014.7
20260503030227 20 1 1.6 1.6 0.00 0.00 0.00 46 1014.6
20260503024724 21 36 1.6 3.2 0.00 0.00 0.00 43 1014.5
20260503023220 21 51 0.0 0.0 0.00 0.00 0.00 43 1014.2
20260503021719 22 78 0.0 1.6 0.00 0.00 0.00 41 1014.4
20260503020216 22 23 0.0 1.6 0.00 0.00 0.00 38 1014.3
20260503014717 23 48 1.6 1.6 0.00 0.00 0.00 45 1014.2
20260503013215 23 75 0.0 0.0 0.00 0.00 0.00 40 1014.0
20260503011711 25 41 1.6 1.6 0.00 0.00 0.00 35 1014.1
20260503010207 25 60 0.0 0.0 0.00 0.00 0.00 35 1014.2
20260503004704 27 58 0.0 0.0 0.00 0.00 0.00 34 1014.3
20260503003202 28 51 0.0 1.6 0.00 0.00 0.00 25 1014.3
20260503001657 27 65 0.0 3.2 0.00 0.00 0.00 21 1014.3
20260503000154 28 30 1.6 4.8 0.00 0.00 0.00 20 1014.5
20260502234651 27 86 3.2 4.8 0.00 0.00 0.00 17 1014.5
20260502233147 26 86 4.8 8.0 0.00 0.00 0.00 22 1014.6
20260502231643 26 92 3.2 4.8 0.00 0.00 0.00 21 1014.8
20260502230143 26 85 3.2 4.8 0.00 0.00 0.00 25 1014.9
20260502224638 26 79 8.0 11.3 0.00 0.00 0.00 26 1015.3
20260502223136 27 82 3.2 3.2 0.00 0.00 0.00 26 1015.3
20260502221632 26 106 8.0 11.3 0.00 0.00 0.00 26 1015.5
20260502220127 26 92 4.8 11.3 0.00 0.00 0.00 25 1015.6
20260502214625 27 75 1.6 1.6 0.00 0.00 0.00 27 1015.7
20260502213122 26 77 1.6 9.7 0.00 0.00 0.00 27 1016.0
20260502211619 26 69 6.4 9.7 0.00 0.00 0.00 30 1016.4
20260502210117 25 91 4.8 8.0 0.00 0.00 0.00 32 1016.5
20260502204613 25 93 4.8 8.0 0.00 0.00 0.00 29 1016.8
20260502203112 25 70 4.8 4.8 0.00 0.00 0.00 30 1016.8
20260502201607 24 119 4.8 8.0 0.00 0.00 0.00 34 1016.9
20260502194559 22 74 1.6 8.0 0.00 0.00 0.00 38 1017.5
20260502193055 22 110 3.2 3.2 0.00 0.00 0.00 42 1017.6
20260502191551 22 88 1.6 4.8 0.00 0.00 0.00 41 1017.9
20260502190049 21 50 1.6 3.2 0.00 0.00 0.00 40 1018.4
20260502184549 21 44 0.0 3.2 0.00 0.00 0.00 38 1018.5
20260502183044 20 69 3.2 4.8 0.00 0.00 0.00 42 1018.7
20260502181539 20 89 1.6 3.2 0.00 0.00 0.00 43 1019.1
20260502163021 13 70 6.4 8.0 0.00 0.00 0.00 65 1020.1
20260502161517 12 84 1.6 4.8 0.00 0.00 0.00 67 1020.1
20260502151425 10 37 1.6 1.6 0.00 0.00 0.00 79 1020.7
20260502122850 6 52 0.0 1.6 0.00 0.00 0.00 91 1020.3
20260502121347 6 102 0.0 3.2 0.00 0.00 0.00 91 1020.7
20260502115843 6 115 1.6 3.2 0.00 0.00 0.00 91 1020.5
20260502114340 6 47 0.0 1.6 0.00 0.00 0.00 92 1020.2
20260502112838 6 64 0.0 0.0 0.00 0.00 0.00 91 1020.5
20260502111336 7 49 0.0 0.0 0.00 0.00 0.00 90 1020.4
20260502105834 7 79 1.6 1.6 0.00 0.00 0.00 89 1020.7
20260502104332 7 40 0.0 0.0 0.00 0.00 0.00 88 1020.2
20260502102830 8 191 1.6 3.2 0.00 0.00 0.00 86 1019.9
20260502101327 7 6 1.6 1.6 0.00 0.00 0.00 89 1019.9
20260502091320 8 51 0.0 0.0 0.00 0.00 0.00 83 1019.8
20260502071256 11 189 3.2 4.8 0.00 0.00 0.00 73 1019.3
20260502065756 11 207 3.2 3.2 0.00 0.00 0.00 74 1019.4
20260502064255 12 22 1.6 1.6 0.00 0.00 0.00 72 1019.3
20260502062753 12 97 1.6 3.2 0.00 0.00 0.00 70 1019.3
20260502061253 12 191 1.6 3.2 0.00 0.00 0.00 69 1019.1
20260502055753 13 204 3.2 3.2 0.00 0.00 0.00 68 1018.8
20260502054252 13 194 3.2 4.8 0.00 0.00 0.00 67 1018.7
20260502052750 13 41 0.0 8.0 0.00 0.00 0.00 66 1018.6
20260502051250 14 299 4.8 9.7 0.00 0.00 0.00 64 1018.6